TimeEDT,TemperatureF,Dew PointF,Humidity,Sea Level PressureIn,VisibilityMPH,Wind Direction,Wind SpeedMPH,Gust SpeedMPH,PrecipitationIn,Events,Conditions,WindDirDegrees,DateUTC
12:51 AM,64.9,57.9,78,30.12,10.0,South,3.5,-,N/A,,Clear,190,2013-08-20 04:51:00
1:51 AM,63.0,57.0,81,30.12,9.0,Calm,Calm,-,N/A,,Clear,0,2013-08-20 05:51:00
2:51 AM,61.0,57.0,87,30.11,9.0,SW,3.5,-,N/A,,Partly Cloudy,230,2013-08-20 06:51:00
3:51 AM,64.0,57.0,78,30.12,10.0,Calm,Calm,-,N/A,,Mostly Cloudy,0,2013-08-20 07:51:00
4:51 AM,63.0,57.0,81,30.12,9.0,South,3.5,-,N/A,,Scattered Clouds,190,2013-08-20 08:51:00
5:51 AM,64.9,57.9,78,30.13,10.0,SSW,5.8,-,N/A,,Scattered Clouds,210,2013-08-20 09:51:00
6:51 AM,64.0,57.9,80,30.15,9.0,SSW,6.9,-,N/A,,Partly Cloudy,210,2013-08-20 10:51:00
7:51 AM,66.0,59.0,78,30.17,9.0,SSW,5.8,-,N/A,,Partly Cloudy,210,2013-08-20 11:51:00
8:51 AM,69.1,61.0,75,30.17,10.0,SW,4.6,-,N/A,,Clear,220,2013-08-20 12:51:00
9:51 AM,73.0,62.1,68,30.19,10.0,South,3.5,-,N/A,,Clear,190,2013-08-20 13:51:00
10:51 AM,79.0,61.0,54,30.19,10.0,Calm,Calm,-,N/A,,Clear,0,2013-08-20 14:51:00
11:51 AM,81.0,60.1,49,30.19,10.0,Calm,Calm,-,N/A,,Partly Cloudy,0,2013-08-20 15:51:00
12:51 PM,82.9,59.0,44,30.19,10.0,SW,5.8,-,N/A,,Scattered Clouds,220,2013-08-20 16:51:00
1:51 PM,82.0,59.0,45,30.17,10.0,NNW,8.1,-,N/A,,Scattered Clouds,330,2013-08-20 17:51:00
2:51 PM,84.0,60.1,44,30.17,10.0,NNW,5.8,-,N/A,,Partly Cloudy,340,2013-08-20 18:51:00
3:51 PM,84.0,60.1,44,30.15,10.0,North,8.1,-,N/A,,Partly Cloudy,350,2013-08-20 19:51:00
4:51 PM,82.9,59.0,44,30.14,10.0,NNW,8.1,-,N/A,,Partly Cloudy,340,2013-08-20 20:51:00
5:51 PM,82.9,57.9,42,30.14,10.0,North,9.2,-,N/A,,Partly Cloudy,350,2013-08-20 21:51:00
6:51 PM,81.0,57.9,45,30.13,10.0,North,4.6,-,N/A,,Partly Cloudy,350,2013-08-20 22:51:00
7:51 PM,80.1,57.9,47,30.13,10.0,Calm,Calm,-,N/A,,Partly Cloudy,0,2013-08-20 23:51:00
8:51 PM,78.1,59.0,52,30.14,10.0,SE,3.5,-,N/A,,Partly Cloudy,140,2013-08-21 00:51:00
9:51 PM,72.0,60.1,66,30.16,10.0,SSE,6.9,-,N/A,,Partly Cloudy,160,2013-08-21 01:51:00
10:51 PM,69.1,60.1,73,30.16,10.0,SSE,6.9,-,N/A,,Scattered Clouds,160,2013-08-21 02:51:00
11:51 PM,69.1,60.1,73,30.16,10.0,SSE,5.8,-,N/A,,Scattered Clouds,160,2013-08-21 03:51:00